Location: Le Gr�zie
(43.6000°N, 13.5000°E)
Time: 12:12:07
(UTC+00:00)

Cosmos 2341 Rocket - Pass Details

Date: 09 April 2020
Orbit: 968 x 1005 km, 82.9° (Epoch: 05 June)

Event Time Altitude Azimuth Distance (km) Brightness Sun altitude
Rises 18:59:21 0° 355° (N) 3,736 7.5 -13.9°
Reaches altitude 10° 19:01:57 10° 359° (N) 2,785 6.8 -14.4°
Maximum altitude 19:08:17 61° 79° (E) 1,136 4.1 -15.4°
Enters shadow 19:13:32 15° 157° (SSE) 2,401 5.6 -16.2°
